EST,Max TemperatureF,Mean TemperatureF,Min TemperatureF,Max Dew PointF,MeanDew PointF,Min DewpointF,Max Humidity, Mean Humidity, Min Humidity, Max Sea Level PressureIn, Mean Sea Level PressureIn, Min Sea Level PressureIn, Max VisibilityMiles, Mean VisibilityMiles, Min VisibilityMiles, Max Wind SpeedMPH, Mean Wind SpeedMPH, Max Gust SpeedMPH,PrecipitationIn, CloudCover, Events, WindDirDegrees
2012-11-1,57,50,42,43,40,37,86,71,55,29.60,29.56,29.53,10,10,10,18,6,24,T,7,,235
2012-11-2,54,49,43,41,37,31,77,64,50,29.64,29.59,29.56,10,10,10,18,7,24,T,7,Rain,285
2012-11-3,55,48,40,34,32,28,70,58,46,29.83,29.73,29.65,10,10,10,17,10,22,0.00,5,,300
2012-11-4,56,46,36,34,31,29,76,60,43,29.95,29.89,29.84,10,10,10,17,7,23,0.00,1,,307
2012-11-5,46,39,31,30,23,17,82,63,43,30.16,30.02,29.95,10,10,10,17,9,22,0.00,4,,341
2012-11-6,43,34,24,24,18,14,69,51,33,30.24,30.20,30.14,10,10,10,14,6,17,0.00,2,,28
2012-11-7,45,39,32,35,30,25,92,78,64,30.13,29.85,29.67,10,5,1,33,19,43,0.40,8,Rain-Snow,12
2012-11-8,40,36,32,35,32,28,89,83,76,29.76,29.64,29.57,10,9,4,36,23,47,0.02,8,Rain-Snow,349
2012-11-9,55,46,37,31,24,17,70,47,24,30.14,29.94,29.76,10,10,10,21,10,32,0.00,2,,317
2012-11-10,57,48,38,37,33,25,92,67,41,30.46,30.30,30.14,10,10,9,12,5,15,0.00,3,,278
2012-11-11,64,53,41,49,44,38,93,70,46,30.52,30.49,30.45,10,10,8,16,6,20,0.00,4,,200
2012-11-12,68,57,45,59,53,46,100,82,63,30.50,30.43,30.26,10,6,0,20,9,28,0.00,5,Fog,186
2012-11-13,65,53,41,63,47,29,93,78,62,30.42,30.27,30.17,10,10,6,23,11,30,0.18,8,Rain,309
2012-11-14,48,42,35,28,26,23,64,53,42,30.52,30.47,30.41,10,10,10,21,12,24,0.00,4,,9
2012-11-15,41,38,35,31,29,25,76,68,59,30.44,30.38,30.30,10,10,10,17,10,22,0.00,7,,360
2012-11-16,47,40,32,30,28,24,82,64,45,30.43,30.33,30.29,10,10,10,14,6,16,0.00,6,,357
2012-11-17,51,41,30,32,28,24,82,62,42,30.66,30.57,30.44,10,10,7,15,6,18,0.00,1,,13
2012-11-18,50,40,29,33,29,27,92,67,42,30.71,30.66,30.61,10,9,7,14,6,17,0.00,3,,23
2012-11-19,50,41,32,37,32,27,85,73,60,30.61,30.46,30.27,10,10,10,13,8,16,0.00,5,,7
2012-11-20,51,42,33,37,34,31,96,76,56,30.25,30.18,30.14,10,10,10,13,8,17,0.00,5,,9
2012-11-21,53,45,37,41,36,28,89,74,59,30.25,30.21,30.16,10,10,10,15,9,22,0.00,7,,5
2012-11-22,55,45,34,40,38,33,92,72,51,30.28,30.22,30.15,10,9,5,9,4,13,0.00,2,,352
2012-11-23,55,44,32,45,39,31,100,83,66,30.13,29.98,29.67,10,5,0,14,5,16,0.00,6,Fog,195
2012-11-24,49,41,32,46,27,16,93,63,33,29.71,29.63,29.57,10,10,10,25,12,35,T,5,,281
2012-11-25,41,36,31,22,18,16,61,50,38,29.91,29.81,29.72,10,10,10,23,13,36,0.00,3,,267
2012-11-26,47,39,30,23,21,18,69,50,31,30.26,30.06,29.92,10,10,10,20,9,29,0.00,3,,267
2012-11-27,38,34,30,34,31,25,96,83,70,30.34,30.27,30.21,10,5,2,12,4,14,0.31,8,Fog-Rain-Snow,11
2012-11-28,40,34,27,32,28,22,96,75,54,30.20,30.17,30.12,10,9,6,17,9,21,T,6,Snow,336
2012-11-29,42,35,28,24,23,20,75,57,39,30.30,30.24,30.19,10,10,10,17,10,21,0.00,2,,251
2012-11-30,39,34,29,26,19,8,75,54,32,30.55,30.43,30.27,10,10,10,15,8,18,0.00,6,,25